星链-5317 (STARLINK-5317 )

导读 | 星芒AI

STARLINK-5317 是 SpaceX 星链计划中的一颗低轨通信卫星,属于第 53 批发射的星链卫星群。该卫星运行在约 550 公里的近地轨道,旨在为全球用户提供高速互联网服务。作为星链网络的一部分,STARLINK-5317 采用先进推进系统和激光通信技术,提升网络稳定性和数据传输效率。该卫星于 2023 年由猎鹰 9 号火箭送入太空,是 SpaceX 扩展全球宽带覆盖计划的重要组成部分。

基本信息
目录编号:
55283
目录名称:
STARLINK-5317
国际标识:
2023-010Q
轨道中心:
EARTH
卫星名称:
星链-5317
卫星全名:
星链-5317 (STARLINK-5317 )
卫星状态:
在轨 (已飞行1067 天)
发射日期:
2023-01-19 UTC
国别 :
美国 (US)
星等 :
--
轨道信息
数据来源 国际轨道数据
星历时间: 2025-12-21T08:34:34+0800
11小时前
查看轨道信息
半长轴: 6950.186km
偏心率: 0.0002892
轨道倾角: 69.998°
近地点辐角 270.999°
升交点赤经 242.751°
平近点角 89.084°
近地点: 570.039km
远地点: 574.059km
周期: 96.107分钟
每日圈数: 14.983325
详细信息
固有亮度:
5
最大亮度:
2.5
卫星平台:
Starlink v1.5
覆盖范围:
全球
运营商:
太空探索技术公司
运营商所在国:
美国
制造商(研发单位):
太空探索技术公司
制造商所在国:
美国
使用方式:
暂无
卫星简介
星链(Starlink)计划是由太空探索技术公司(SpaceX)提出的一个巨型低轨卫星互联网星座项目,计划在2019年至2024年间在太空搭建由约1.2万颗卫星组成的“星链”网络,其中1584颗将部署在地球上空550千米处的近地轨道,并从2020年开始工作。该卫星仍在工作。
2D轨道图
3D轨道图
轨道高度分析图
轨道倾角分析图
轨道综合分析图
查看轨道综合分析图